Regional Weather Roundup
Issued by NWS

Home | Current Version | Previous Version | Text Only | Print | Product List | Glossary On
Versions: 1 2 3 4 5 6 7 8 9 10 11 12 13 14 15 16 17 18 19 20 21 22 23 24 25 26 27 28 29 30 31 32 33 34 35 36 37 38 39 40 41 42 43 44 45 46 47 48 49 50
000
ASUS43 KMKX 111320
RWRWI

WISCONSIN REGIONAL WEATHER ROUNDUP
NATIONAL WEATHER SERVICE MILWAUKEE/SULLIVAN WI
700 AM CST MON DEC 11 2017

NOTE: "FAIR" INDICATES FEW OR NO CLOUDS BELOW 12,000 FEET WITH NO
SIGNIFICANT WEATHER AND/OR OBSTRUCTIONS TO VISIBILITY.

WIZ001-002-006>008-014>016-023>028-111400-
NORTHWEST WISCONSIN

CITY           SKY/WX    TMP DP  RH WIND       PRES   REMARKS
SUPERIOR ARPT  CLOUDY    21  20  96 CALM      29.74S
ASHLAND        LGT SNOW  20  17  88 CALM      29.75F FOG
HAYWARD        CLOUDY    22  19  89 S5        29.72F FOG     WCI  16
SIREN          CLOUDY    25  23  91 S3        29.73S
CUMBERLAND     CLOUDY    23  21  93 SE7       29.71F FOG     WCI  15
RICE LAKE      CLOUDY    24  23  96 CALM      29.75F
CHETEK         CLOUDY    24  22  93 SE6       29.75F WCI  17
LADYSMITH      CLOUDY    23  22  95 SE7       29.77F WCI  15
EAU CLAIRE     CLOUDY    25  22  88 S6        29.76F FOG     WCI  18
MENOMONIE      CLOUDY    26  24  93 E5        29.75F WCI  21
NEW RICHMOND   CLOUDY    27  25  93 S8        29.71F WCI  18
OSCEOLA        CLOUDY    26  26 100 CALM      29.74F
$$

WIZ003>005-009-010-017-018-111400-
NORTH CENTRAL WISCONSIN

CITY           SKY/WX    TMP DP  RH WIND       PRES   REMARKS
MANITOWISH WTR LGT SNOW  17  17 100 S6        29.75S WCI   8
ARBOR VITAE    LGT SNOW  19  17  90 S6        29.76F WCI  11
WOODRUFF       LGT SNOW  19  17  90 S6        29.76F WCI  11
RHINELANDER    CLOUDY    18  17  96 S6        29.77F FOG     WCI  10
EAGLE RIVER    LGT SNOW  17  13  87 S5        29.75F WCI  10
LAND O LAKES   LGT SNOW  16  14  90 S3        29.77F
PHILLIPS       CLOUDY    19  19  99 S7        29.75F WCI  10
TOMAHAWK       CLOUDY    19  17  93 CALM      29.78F FOG
MEDFORD        CLOUDY    20  18  94 S9        29.76F FOG     WCI   9
MERRILL        CLOUDY    19  18  95 S5        29.80F FOG     WCI  13
$$

WIZ029-030-035-036-043>047-111400-
CENTRAL WISCONSIN

CITY           SKY/WX    TMP DP  RH WIND       PRES   REMARKS
WAUSAU         CLOUDY    20  18  92 S7        29.80F FOG     WCI  11
MOSINEE        LGT SNOW  19  19 100 SE8       29.82F WCI   9
MARSHFIELD     CLOUDY    22  20  92 S10       29.78F WCI  11
STEVENS POINT  CLOUDY    20  20  98 S6        29.83F FOG     WCI  12
WAUPACA        CLOUDY    24  20  86 SE3       29.87F
WAUTOMA        CLOUDY    21  19  93 S6        29.86F WCI  14
WISC RAPIDS    CLOUDY    22  20  92 S6        29.84F WCI  14
CAMP DOUGLAS   CLOUDY    25  21  86 S9        29.81F WCI  15
$$

WIZ011>013-019>022-031-037>040-048>050-111400-
NORTHEAST WISCONSIN

CITY           SKY/WX    TMP DP  RH WIND       PRES   REMARKS
ANTIGO         CLOUDY    18  17  95 SE9       29.80F FOG     WCI   6
SHAWANO        LGT SNOW  22  18  85 CALM      29.89S
OCONTO         CLOUDY    21  18  86 SW3       29.91S
STURGEON BAY   LGT SNOW  21  18  86 S7        29.91S FOG     WCI  13
GREEN BAY      FLURRIES  22  20  92 S6        29.91S WCI  14
MANITOWOC      LGT SNOW  21  19  93 S8        29.91F FOG     WCI  12
APPLETON       LGT SNOW  21  18  86 S9        29.86F WCI  11
CLINTONVILLE   FLURRIES  21  18  86 SE5       29.88F WCI  15
OSHKOSH        CLOUDY    22  20  92 S9        29.88F WCI  12
$$

WIZ032>034-041-042-053>061-111400-
SOUTHWEST WISCONSIN

CITY           SKY/WX    TMP DP  RH WIND       PRES   REMARKS
LA CROSSE      PTCLDY    27  22  81 S8        29.79F WCI  19
SPARTA         CLOUDY    26  23  87 S6        29.81F WCI  20
VIROQUA        MOCLDY    24  24  97 SE12      29.78F WCI  13
BOSCOBEL       CLOUDY    26  21  81 CALM      29.84F
PRAIRIE DU CHI CLOUDY    28  22  77 E6        29.82F WCI  22
PLATTEVILLE    CLOUDY    26  24  95 SE7       29.84F WCI  18
$$

WIZ056-057-062-063-064-067-068-111400-
SOUTH CENTRAL WISCONSIN

CITY           SKY/WX    TMP DP  RH WIND       PRES   REMARKS
REEDSBURG      CLOUDY    24  23  96 S8        29.85F WCI  15
BARABOO/DELLS  CLOUDY    24  21  90 S10G16    29.84F WCI  13
LONE ROCK      CLOUDY    25  23  92 E8        29.85F FOG     WCI  16
MINERAL POINT  PTCLDY    27  27 100 SE9       29.83F WCI  17
MADISON        CLOUDY    24  21  88 S10       29.87F WCI  14
MIDDLETON      CLOUDY    26  23  87 S9        29.87F WCI  17
WATERTOWN      CLOUDY    22  22 100 S6        29.90F WCI  15
MONROE         CLOUDY    27  23  86 S10       29.85F WCI  17
JANESVILLE     CLOUDY    27  21  80 S8        29.89F WCI  18
$$

WIZ051-052-058>065-066-070>072-111400-
SOUTHEAST WISCONSIN

CITY           SKY/WX    TMP DP  RH WIND       PRES   REMARKS
MILWAUKEE      LGT SNOW  25  22  88 S7        29.92F WCI  17
WAUKESHA       LGT SNOW  21  19  93 S6        29.92F WCI  14
MILWAUKEE/TIMM LGT SNOW  23  19  86 S5        29.93F WCI  17
RACINE         LGT SNOW  25  22  88 S8        29.94F FOG     WCI  16
BURLINGTON     CLOUDY    32  32 100 S3        29.92F
KENOSHA        LGT SNOW  25  21  85 S8        29.94F FOG     WCI  16
FOND DU LAC    CLOUDY    23  18  81 S9        29.89F WCI  13
SHEBOYGAN      LGT SNOW  22  21  96 S9        29.91F FOG     WCI  12
WEST BEND      LGT SNOW  23  21  93 S6        29.90F WCI  16
JUNEAU         FLURRIES  21  19  92 SE7       29.90F WCI  13
$$

LSZ147-162-111400-
LAKE SUPERIOR

STATION/POSITION TIME  TEMP    WIND        PRES    WAVE
                       AIR SEA DIR/SP/G            HT/PER
                 (UTC) (F)     (DEG/KT/KT) (MB)    (FT/S)
DEVILS ISLAND    1300   22     190/  8/ 12 1008.6F
SAXON HARBOR     1230   22                 1008.1F
$$

LMZ867-665-643>646-111400-
LAKE MICHIGAN

STATION/POSITION TIME  TEMP    WIND        PRES    WAVE
                       AIR SEA DIR/SP/G            HT/PER
                 (UTC) (F)     (DEG/KT/KT) (MB)    (FT/S)
NORTHPORT PIER   1240   21     190/  2/  4 1013.2F
KEWAUNEE LAKESHO 1300   23     220/  6/ 11 1012.1
SHEBOYGAN LAKESH 1300   24     210/  9/ 10 1013.8F
PORT WASHINGTON  1230   24     210/  6/  9 1014.9F
MILWAUKEE LAKESH 1300   24     180/ 10/ 11   N/A
KENOSHA   LAKESH 1300   26     200/ 10/ 14 1014.2
$$

TC  - TEMPERATURE IN CELSIUS
VSB - VISIBILITY IN STATUTE MILES
WCI - WIND CHILL INDEX
HX  - HEAT INDEX




USA.gov is the U.S. government's official web portal to all federal, state and local government web resources and services.